sat.trackr.live / text

‹ back to catalog

GLOBALSTAR M083

NORAD 37739 · 2011-033A

PAYLOAD ACTIVE UNKNOWN

§ Identity

Operator
Country
GLOB
Launch date
2011-07-13
Launch site
TYMSC
Launch vehicle
Mass (kg)
RCS (m²)
4.67

Purposes: comms

External: N2YO · Heavens-Above · Gunter

§ Orbital elements

Epoch: 2026-05-25T04:33:21.210048Z

Period
114.08 min
Inclination
51.9857°
Eccentricity
0.0000556
Mean motion
12.62262568 rev/d
Perigee alt
1,413.2 km
Apogee alt
1,414.1 km
Semi-major
7,791.8 km
B*
3.6860e-5
RAAN
82.5544°
Arg perigee
22.0570°
Mean anomaly
116.6147°
Rev number
69,004

§ Raw data

GLOBALSTAR M0831 37739U 11033A   26145.18982882 -.00000097  00000+0  36860-4 0  99942 37739  51.9857  82.5544 0000556  22.0570 116.6147 12.62262568690041

JSON: /api/v1/satellites/37739 · /tle

For live sub-satellite position, see the globe view (requires WebGL).

§ Visibility from observer

Set your observer location to see the next 7 days of passes ≥ 10°. The values pass through the URL so the page stays shareable.

No JS? Fill the form by hand. The geolocation button needs JavaScript.